This is the latest recevied weather packets stored in our database for station/object AD4CG. If no packets are shown the sender has not sent any weather packets the latest 10 day(s).
| Time | Temp. | Humidity | Pressure | Rain* | Wind** | Luminosity | Snow |
|---|---|---|---|---|---|---|---|
| 1777443946 | 12.78° C | 100% | 1015.9 hPa | 0 mm | - | - | - |
| 1777443008 | 13.33° C | 100% | 1015.6 hPa | 0 mm | - | - | - |
| 1777441442 | 13.33° C | 100% | 1016.3 hPa | 0 mm | - | - | - |
| 1777439253 | 13.89° C | 100% | 1017.6 hPa | 0 mm | - | - | - |
| 1777438941 | 13.89° C | 100% | 1017.3 hPa | 0 mm | - | - | - |
| 1777433313 | 14.44° C | 100% | 1018.3 hPa | 0 mm | - | - | - |
| 1777432999 | 14.44° C | 100% | 1018.3 hPa | 0 mm | - | - | - |
| 1777430181 | 15.56° C | 100% | 1018.6 hPa | 0 mm | - | - | - |
| 1777429556 | 15.56° C | 100% | 1017.9 hPa | 0 mm | - | - | - |
| 1777426425 | 16.67° C | 100% | 1018.3 hPa | 0 mm | - | - | - |
| 1777425174 | 16.67° C | 100% | 1017.6 hPa | 0 mm | - | - | - |
| 1777423293 | 17.22° C | 100% | 1017.9 hPa | 0 mm | - | - | - |
| 1777419531 | 20° C | 97% | 1016.9 hPa | 0 mm | - | - | - |
| 1777416076 | 21.67° C | 81% | 1017.6 hPa | 0 mm | - | - | - |
| 1777411054 | 21.67° C | 75% | 1017.6 hPa | 0 mm | - | - | - |
| 1777410740 | 21.67° C | 72% | 1017.6 hPa | 0 mm | - | - | - |
| 1777407920 | 21.11° C | 73% | 1018.3 hPa | 0 mm | - | - | - |
| 1777405414 | 20.56° C | 72% | 1018.6 hPa | 0 mm | - | - | - |
| 1777403847 | 20.56° C | 72% | 1019 hPa | 0 mm | - | - | - |
| 1777402589 | 20.56° C | 74% | 1019.6 hPa | 0 mm | - | - | - |
| 1777402276 | 20° C | 72% | 1019.6 hPa | 0 mm | - | - | - |
| 1777398525 | 18.89° C | 76% | 1020.3 hPa | 0 mm | - | - | - |
| 1777397275 | 17.78° C | 76% | 1020.7 hPa | 0 mm | - | - | - |
| 1777395392 | 17.22° C | 75% | 1019.6 hPa | 0 mm | - | - | - |
| 1777394449 | 16.67° C | 82% | 1020 hPa | 0 mm | - | - | - |
* Rain latest hour (hover to see other rain measurements)
** Current wind speed in m/s (hover to see current wind gust speed)